OK2ARM-12 Weather Reports


time (UTC)temp
C
wind
direction
speed
KPH
gust
KPH
rain 1hr
cm
rain 24hr
cm
rain mn
cm
humidity
%
barometer
mb
20260507033537 10 0.0 0.0 0.00 0.00 0.00 89 1009.4
20260507032536 10 0.0 0.0 0.00 0.00 0.00 90 1009.4
20260507031536 10 0.0 0.0 0.00 0.00 0.00 91 1009.2
20260507030536 10 0.0 0.0 0.00 0.00 0.00 91 1009.2
20260507023050 10 0.0 0.0 0.00 0.00 0.00 87 1008.9
20260507022049 10 0.0 0.0 0.00 0.00 0.00 85 1008.9
20260507021050 10 0.0 0.0 0.00 0.00 0.00 82 1009.0
20260507020049 10 0.0 0.0 0.00 0.00 0.00 82 1008.8
20260507013825 10 0.0 0.0 0.00 0.00 0.00 83 1008.4
20260507012825 10 0.0 0.0 0.00 0.00 0.00 84 1008.2
20260507011825 10 0.0 0.0 0.00 0.00 0.00 84 1008.2
20260507010825 10 0.0 0.0 0.00 0.00 0.00 85 1008.2
20260507005825 10 0.0 0.0 0.00 0.00 0.00 87 1008.1
20260507004825 10 0.0 0.0 0.00 0.00 0.00 87 1008.1
20260507003825 10 0.0 0.0 0.00 0.00 0.00 86 1007.9
20260507002825 10 0.0 0.0 0.00 0.00 0.00 86 1007.6
20260507001825 10 0.0 0.0 0.00 0.00 0.00 85 1007.8
20260507000825 11 0.0 0.0 0.00 0.00 0.00 85 1007.8
20260506235825 11 0.0 0.0 0.00 0.00 0.00 85 1007.8
20260506232338 11 0.0 0.0 0.00 0.00 0.00 84 1007.4
20260506231338 11 0.0 0.0 0.00 0.00 0.00 84 1007.1
20260506230338 11 0.0 0.0 0.00 0.00 0.00 83 1006.7
20260506225338 11 0.0 0.0 0.00 0.00 0.00 84 1006.7
20260506224338 11 0.0 0.0 0.00 0.00 0.00 83 1006.4
20260506220849 13 0.0 0.0 0.00 0.00 0.00 74 1005.9
20260506215849 14 0.0 0.0 0.00 0.00 0.00 68 1005.8
20260506213624 14 0.0 0.0 0.00 0.00 0.00 67 1005.6
20260506212624 15 0.0 0.0 0.00 0.00 0.00 67 1005.4
20260506211624 14 0.0 0.0 0.00 0.00 0.00 67 1005.2
20260506210624 15 0.0 0.0 0.00 0.00 0.00 66 1005.1
20260506205624 15 0.0 0.0 0.00 0.00 0.00 65 1004.7
20260506204625 15 0.0 0.0 0.00 0.00 0.00 64 1004.7
20260506203624 15 0.0 0.0 0.00 0.00 0.00 64 1004.7
20260506202624 15 0.0 0.0 0.00 0.00 0.00 63 1004.6
20260506201625 15 0.0 0.0 0.00 0.00 0.00 63 1004.7
20260506200624 15 0.0 0.0 0.00 0.00 0.00 62 1004.8
20260506195624 16 0.0 0.0 0.00 0.00 0.00 61 1004.7
20260506194624 16 0.0 0.0 0.00 0.00 0.00 60 1004.7
20260506193624 16 0.0 0.0 0.00 0.00 0.00 59 1004.6
20260506192625 16 0.0 0.0 0.00 0.00 0.00 58 1004.5
20260506191624 16 0.0 0.0 0.00 0.00 0.00 58 1004.3
20260506190624 16 0.0 0.0 0.00 0.00 0.00 57 1004.2
20260506185624 16 0.0 0.0 0.00 0.00 0.00 57 1004.3
20260506184624 17 0.0 0.0 0.00 0.00 0.00 56 1004.1
20260506183624 17 0.0 0.0 0.00 0.00 0.00 56 1003.9
20260506182624 17 0.0 0.0 0.00 0.00 0.00 55 1004.0
20260506181624 17 0.0 0.0 0.00 0.00 0.00 55 1004.1
20260506175400 17 0.0 0.0 0.00 0.00 0.00 52 1004.0
20260506174401 17 0.0 0.0 0.00 0.00 0.00 51 1003.9
20260506173400 18 0.0 0.0 0.00 0.00 0.00 51 1004.0
20260506172400 18 0.0 0.0 0.00 0.00 0.00 50 1004.1
20260506171400 18 0.0 0.0 0.00 0.00 0.00 48 1004.1
20260506163911 19 0.0 0.0 0.00 0.00 0.00 43 1004.5
20260506162911 19 0.0 0.0 0.00 0.00 0.00 43 1004.4
20260506161911 19 0.0 0.0 0.00 0.00 0.00 42 1004.4
20260506155648 19 0.0 0.0 0.00 0.00 0.00 44 1004.6
20260506154647 19 0.0 0.0 0.00 0.00 0.00 44 1004.8
20260506153647 18 0.0 0.0 0.00 0.00 0.00 45 1004.9
20260506152648 19 0.0 0.0 0.00 0.00 0.00 44 1005.2
20260506151648 18 0.0 0.0 0.00 0.00 0.00 45 1005.3
20260506150647 19 0.0 0.0 0.00 0.00 0.00 46 1005.3
20260506145647 18 0.0 0.0 0.00 0.00 0.00 47 1005.4
20260506144648 19 0.0 0.0 0.00 0.00 0.00 45 1005.6
20260506143648 18 0.0 0.0 0.00 0.00 0.00 48 1005.8
20260506141423 18 0.0 0.0 0.00 0.00 0.00 50 1006.1
20260506140423 18 0.0 0.0 0.00 0.00 0.00 49 1006.0
20260506135423 18 0.0 0.0 0.00 0.00 0.00 47 1006.1
20260506134423 18 0.0 0.0 0.00 0.00 0.00 49 1006.3
20260506133423 18 0.0 0.0 0.00 0.00 0.00 47 1006.3
20260506132423 19 0.0 0.0 0.00 0.00 0.00 46 1006.6
20260506131423 18 0.0 0.0 0.00 0.00 0.00 45 1006.5
20260506130423 18 0.0 0.0 0.00 0.00 0.00 45 1006.8
20260506125423 19 0.0 0.0 0.00 0.00 0.00 43 1006.8
20260506124423 19 0.0 0.0 0.00 0.00 0.00 45 1007.0
20260506123423 18 0.0 0.0 0.00 0.00 0.00 44 1007.1
20260506122423 18 0.0 0.0 0.00 0.00 0.00 46 1007.2
20260506121424 18 0.0 0.0 0.00 0.00 0.00 44 1007.3
20260506120423 18 0.0 0.0 0.00 0.00 0.00 46 1007.4
20260506115423 18 0.0 0.0 0.00 0.00 0.00 43 1007.4
20260506114423 18 0.0 0.0 0.00 0.00 0.00 44 1007.4
20260506112159 18 0.0 0.0 0.00 0.00 0.00 47 1007.4
20260506111159 17 0.0 0.0 0.00 0.00 0.00 49 1007.5
20260506110159 18 0.0 0.0 0.00 0.00 0.00 46 1007.7
20260506105159 17 0.0 0.0 0.00 0.00 0.00 50 1007.8
20260506104159 18 0.0 0.0 0.00 0.00 0.00 52 1007.8
20260506100712 17 0.0 0.0 0.00 0.00 0.00 53 1008.1
20260506095712 17 0.0 0.0 0.00 0.00 0.00 52 1008.3
20260506094712 17 0.0 0.0 0.00 0.00 0.00 53 1008.4
20260506092448 17 0.0 0.0 0.00 0.00 0.00 55 1008.3
20260506091449 16 0.0 0.0 0.00 0.00 0.00 56 1008.3
20260506090448 17 0.0 0.0 0.00 0.00 0.00 58 1008.4
20260506085448 16 0.0 0.0 0.00 0.00 0.00 59 1008.3
20260506084448 15 0.0 0.0 0.00 0.00 0.00 61 1008.3
20260506083448 16 0.0 0.0 0.00 0.00 0.00 60 1008.4
20260506082448 15 0.0 0.0 0.00 0.00 0.00 62 1008.5
20260506081448 16 0.0 0.0 0.00 0.00 0.00 62 1008.6
20260506072959 15 0.0 0.0 0.00 0.00 0.00 67 1008.5
20260506071959 14 0.0 0.0 0.00 0.00 0.00 67 1008.7
20260506070959 13 0.0 0.0 0.00 0.00 0.00 66 1008.7
20260506061735 12 0.0 0.0 0.00 0.00 0.00 75 1008.5
20260506060735 12 0.0 0.0 0.00 0.00 0.00 75 1008.5
20260506045024 10 0.0 0.0 0.00 0.00 0.00 93 1007.9
20260506044025 11 0.0 0.0 0.00 0.00 0.00 92 1007.9
20260506043025 11 0.0 0.0 0.00 0.00 0.00 90 1007.9
20260506040800 11 0.0 0.0 0.00 0.00 0.00 90 1007.6
20260506035800 11 0.0 0.0 0.00 0.00 0.00 90 1007.5
20260506034800 11 0.0 0.0 0.00 0.00 0.00 93 1007.4